Regional Weather Roundup
Issued by NWS

Home | Current Version | Previous Version | Text Only | Print | Product List | Glossary Off
Versions: 1 2 3 4 5 6 7 8 9 10 11 12 13 14 15 16 17 18 19 20 21 22 23 24 25 26 27 28 29 30 31 32 33 34 35 36 37 38 39 40 41 42 43 44 45 46 47 48 49 50

000
ASUS43 KLOT 291910
RWRIL

ILLINOIS REGIONAL WEATHER ROUNDUP
NATIONAL WEATHER SERVICE CHICAGO/ROMEOVILLE IL
100 PM CST THU JAN 29 2015

NOTE: "FAIR" INDICATES FEW OR NO CLOUDS BELOW 12,000 FEET WITH NO
SIGNIFICANT WEATHER AND/OR OBSTRUCTIONS TO VISIBILITY.

* THESE STATIONS ARE NOT UNDER NWS QUALITY CONTROL. THEY ALSO MAY NOT
  REPORT WEATHER SUCH AS PRECIPITATION OR FOG.

ILZ001-002-007-009-015-016-024-292000-
NORTHWEST ILLINOIS

CITY           SKY/WX    TMP DP  RH WIND       PRES   REMARKS
MOLINE         CLOUDY    36  31  82 NW18      30.10R WCI  26
STERLING*      CLOUDY    36  28  75 NW14G21   30.05R WCI  27
SAVANNA*       CLOUDY    37  29  73 NW17G23   30.06R WCI  27
$$

ILZ003-004-008-010-011-017-018-292000-
NORTH CENTRAL ILLINOIS

CITY           SKY/WX    TMP DP  RH WIND       PRES   REMARKS
ROCKFORD       CLOUDY    34  26  72 NW16G28   30.02R WCI  24
FREEPORT*      CLOUDY    34  28  80 NW14G23   30.04R WCI  24
ROCHELLE*      CLOUDY    33  28  83 NW15G22   30.02R WCI  23
DE KALB*       CLOUDY    32  26  79 NW16G22   29.99R WCI  21
PERU*          CLOUDY    35  31  85 NW20      30.04R WCI  24
$$

ILZ005-006-012>014-019>023-292000-
NORTHEAST ILLINOIS

CITY           SKY/WX    TMP DP  RH WIND       PRES   REMARKS
CHICAGO-OHARE  CLOUDY    33  26  75 NW16G25   29.95R WCI  23
CHICAGO-MIDWAY CLOUDY    35  27  72 NW18      29.96R WCI  24
AURORA         CLOUDY    34  27  75 NW20G25   29.99R HAZE    WCI  23
LANSING*       CLOUDY    34  26  72 NW12G24   29.95R WCI  26
JOLIET*        CLOUDY    33  26  76 NW12G22   29.99R WCI  25
WAUKEGAN       CLOUDY    33  26  75 NW9G18    29.94R WCI  25
DUPAGE AIRPORT LGT RAIN  33  26  75 NW21G30   29.96R WCI  21
KANKAKEE*      CLOUDY    34  28  79 NW18G26   29.98R WCI  23
WHEELING       CLOUDY    33  25  72 NW20      29.97R WCI  21
MORRIS*        CLOUDY    34  30  86 NW12G18   29.99R WCI  25
ROMEOVILLE*    CLOUDY    33  26  76 N15G21    29.97R WCI  23
NORTHERLY ISL    N/A     34  25  70 NW15        N/A  WCI  24
$$

LMZ740>746-292000-
SOUTHERN LAKE MICHIGAN

STATION/POSITION SKY/WX   TEMP    WIND        PRES    VSBY  WAVE
                          AIR SEA DIR/SP/G                  HT/PER
                          (F)     (DEG/KT/KT) (MB)    (MI)  (FT/S)
WAUKEGAN HARBOR            33     330/ 17/ 23   N/A
HARRISON CRIB              33     320/ 20/ 25   N/A
BURNHAM HARBOR             34     270/ 12/ 20   N/A
CALUMET HARBOR             34     300/ 11/ 18   N/A
MICHIGAN CITY              33     310/ 28/ 33   N/A
$$

ILZ025>027-034>036-040-047-049-050-058-095>099-292000-
WEST-CENTRAL ILLINOIS

CITY           SKY/WX    TMP DP  RH WIND       PRES   REMARKS
QUINCY         CLOUDY    38  30  73 NW24G31   30.17R WCI  27
GALESBURG*     CLOUDY    35  33  92 NW22G29   30.11R WCI  23
MACOMB*        CLOUDY    37  32  84 NW25      30.15R WCI  25
JACKSONVILLE*  CLOUDY    39  34  83 NW17      30.13R HAZE    WCI  30
PITTSFIELD*    CLOUDY    39  32  76 NW13G23   30.16R WCI  32
$$

ILZ028>032-037-038-041>044-048-051>054-059>061-292000-
CENTRAL ILLINOIS

CITY           SKY/WX    TMP DP  RH WIND       PRES   REMARKS
PONTIAC        CLOUDY    35  31  84 NW17G26   30.02R WCI  25
BLOOMINGTON    CLOUDY    36  30  79 NW20G28   30.04R WCI  25
DECATUR        CLOUDY    37  30  75 NW15G25   30.06R WCI  28
PEORIA         CLOUDY    38  30  73 NW14G29   30.08R WCI  30
LACON*         CLOUDY    35  30  82 NW15G24   30.05S WCI  25
LINCOLN*       CLOUDY    38  32  78 NW12G23   30.09R WCI  31
SPRINGFIELD    CLOUDY    39  31  72 NW22G29   30.10R WCI  29
TAYLORVILLE    CLOUDY    36  32  87 NW16G23   30.09R WCI  26
$$

ILZ033-039-045-046-055>057-062-063-292000-
EAST-CENTRAL ILLINOIS

CITY           SKY/WX    TMP DP  RH WIND       PRES   REMARKS
CHAMPAIGN      CLOUDY    35  29  78 NW21G28   30.02R WCI  24
DANVILLE*      CLOUDY    34  30  85 NW20G28   29.96R WCI  23
RANTOUL*       CLOUDY    36  32  84 NW15G24   30.00R HAZE    WCI  27
MATTOON        CLOUDY    36  30  79 NW18G26   30.04R WCI  26
PARIS*         CLOUDY    35  32  88 W16G24    30.03R FOG     WCI  26
$$

ILZ079-100>102-292000-
SOUTHWEST ILLINOIS

CITY           SKY/WX    TMP DP  RH WIND       PRES   REMARKS
ALTON          CLOUDY    39  32  75 NW15G23   30.15R WCI  31
BELLEVILLE     CLOUDY    41  32  69 NW14      30.14R
CAHOKIA*       CLOUDY    42  32  67 NW18G26   30.16S
SPARTA*        CLOUDY    40  31  71 NW13G18   30.16F
$$

ILZ064>066-069>071-074>076-080>082-084>086-088>090-092>094-292000-
SOUTH-CENTRAL ILLINOIS

CITY           SKY/WX    TMP DP  RH WIND       PRES   REMARKS
CARBONDALE     CLOUDY    41  31  67 NW14      30.15S
CAIRO*         CLOUDY    47  36  65 NW10G20   30.15R
EFFINGHAM*     CLOUDY    37  29  72 W17G23    30.09R WCI  28
MARION         CLOUDY    41  32  70 NW15G25   30.16R
MT. VERNON     CLOUDY    39  30  70 W10       30.13R WCI  32
CENTRALIA*     CLOUDY    39  31  71 NW12G24   30.12R WCI  32
SALEM*         CLOUDY    41  32  71 NW15G21   30.11S
METROPOLIS*    CLOUDY    44  34  67 NW13G20   30.13S
$$

ILZ067-068-072-073-078-083-087-091-292000-
SOUTHEAST ILLINOIS

CITY           SKY/WX    TMP DP  RH WIND       PRES   REMARKS
LAWRENCEVILLE  CLOUDY    39  33  79 W14G25    30.07R HAZE    WCI  31
FLORA*         CLOUDY    39  32  76 NW18      30.09F WCI  29
FAIRFIELD*     CLOUDY    40  32  75 W9G20     30.09S
HARRISBURG*    CLOUDY    41  32  70 NW16G26   30.14R
ROBINSON*      CLOUDY    37  32  82 NW16G22   30.06R WCI  28
CARMI*         CLOUDY    42  36  78 W18G26    30.10S
$$

ABBREVIATIONS USED IN REMARKS
   TC - TEMPERATURE IN CELSIUS
  WCI - WIND CHILL INDEX
   HX - HEAT INDEX
  VSB - VISIBILITY
$$




USA.gov is the U.S. government's official web portal to all federal, state and local government web resources and services.